Americus, GA

12:58 AM EST on February 11, 2016 (GMT -0500)
Souther

Weather History for KACJ - January, 2013

Change the Weather History Date:

Friday, January 25, 2013

  Actual Average (KABY) Record (KABY)
Temperature  
Mean Temperature 49 °F 50 °F  
Max Temperature 57 °F 61 °F 81 °F (1943)
Min Temperature 41 °F 38 °F 17 °F (1963)
Degree Days  
Heating Degree Days 16 15  
Month to date heating degree days 399  
Since 1 July heating degree days 1112  
Cooling Degree Days 0 0  
Month to date cooling degree days 0  
Year to date cooling degree days 0  
Moisture  
Dew Point 38 °F    
Average Humidity 67    
Maximum Humidity 93    
Minimum Humidity 37    
Precipitation  
Precipitation 0.00 in 0.20 in 0.91 in (2011)
Month to date precipitation 3.63  
Year to date precipitation 3.63  
Sea Level Pressure  
Sea Level Pressure 30.27 in    
Wind  
Wind Speed 6 mph (SE)    
Max Wind Speed 12 mph    
Max Gust Speed 17 mph    
Visibility 10 miles    
Events      
T = Trace of Precipitation, MM = Missing Value Source: NWS Daily Summary

Daily Weather History Graph

Daily Weather History Graph

Search for Another Location

Airport or City:

Trip Planner

Search our weather history database for the weather conditions in past years. The results will help you decide how hot, cold, wet, or windy it might be!

Date:

Astronomy

Jan. 25, 2013 Rise Set
Actual Time 7:34 AM EST 6:04 PM EST
Civil Twilight 7:08 AM EST 6:30 PM EST
Nautical Twilight 6:38 AM EST 6:59 PM EST
Astronomical Twilight 6:09 AM EST 7:29 PM EST
Moon 5:00 PM EST (1/25) 6:12 AM EST (1/25)
Length of Visible Light 11h 21m
Length of Day
10h 29m
Waxing Gibbous, 98% of the Moon is Illuminated
Jan 25
Waxing Gibbous
Jan 26
Full
Feb 3
Last Quarter
Feb 10
New
Feb 17
First Quarter

Hourly Weather History & Observations

Time (EST) Temp. Windchill Dew Point Humidity Pressure Visibility Wind Dir Wind Speed Gust Speed Precip Events Conditions
12:15 AM 46.4 °F 42.4 °F 24.8 °F 43% 30.34 in 10.0 mi NE 8.1 mph - N/A   Overcast
12:35 AM 46.4 °F 41.9 °F 23.0 °F 40% 30.35 in 10.0 mi ENE 9.2 mph - N/A   Overcast
12:55 AM 46.4 °F 42.4 °F 21.2 °F 37% 30.34 in 10.0 mi ENE 8.1 mph - N/A   Overcast
1:15 AM 46.4 °F 41.9 °F 21.2 °F 37% 30.34 in 10.0 mi ENE 9.2 mph - N/A   Overcast
1:55 AM 46.4 °F 42.4 °F 21.2 °F 37% 30.36 in 10.0 mi ENE 8.1 mph - N/A   Overcast
2:15 AM 46.4 °F 43.5 °F 21.2 °F 37% 30.35 in 10.0 mi ENE 5.8 mph - N/A   Overcast
2:35 AM 46.4 °F 42.4 °F 23.0 °F 40% 30.35 in 10.0 mi East 8.1 mph - N/A   Overcast
2:55 AM 46.4 °F 41.9 °F 26.6 °F 46% 30.35 in 10.0 mi East 9.2 mph - N/A   Overcast
3:15 AM 46.4 °F 41.1 °F 30.2 °F 53% 30.33 in 10.0 mi East 11.5 mph - N/A   Overcast
3:35 AM 44.6 °F 39.7 °F 32.0 °F 61% 30.33 in 10.0 mi ESE 9.2 mph 17.3 mph N/A   Overcast
3:55 AM 44.6 °F 39.2 °F 33.8 °F 66% 30.34 in 10.0 mi East 10.4 mph - N/A   Overcast
4:15 AM 44.6 °F 40.7 °F 33.8 °F 66% 30.35 in 10.0 mi East 6.9 mph - N/A   Overcast
4:35 AM 44.6 °F 41.4 °F 35.6 °F 71% 30.36 in 10.0 mi East 5.8 mph - N/A   Overcast
4:55 AM 44.6 °F 40.2 °F 35.6 °F 71% 30.36 in 10.0 mi East 8.1 mph - N/A   Overcast
5:15 AM 44.6 °F 40.2 °F 33.8 °F 66% 30.36 in 10.0 mi East 8.1 mph - N/A   Overcast
5:55 AM 42.8 °F 38.0 °F 33.8 °F 70% 30.35 in 10.0 mi East 8.1 mph - N/A   Overcast
6:15 AM 42.8 °F 38.6 °F 32.0 °F 66% 30.35 in 10.0 mi East 6.9 mph - N/A   Overcast
6:35 AM 42.8 °F 37.5 °F 32.0 °F 66% 30.36 in 10.0 mi East 9.2 mph - N/A   Overcast
7:15 AM 41.0 °F 34.7 °F 32.0 °F 70% 30.35 in 10.0 mi ESE 10.4 mph - N/A   Overcast
7:35 AM 41.0 °F 38.0 °F 30.2 °F 65% 30.36 in 10.0 mi East 4.6 mph - N/A   Overcast
7:55 AM 41.0 °F 36.4 °F 28.4 °F 61% 30.38 in 10.0 mi ENE 6.9 mph - N/A   Overcast
8:15 AM 41.0 °F 37.1 °F 28.4 °F 61% 30.37 in 10.0 mi East 5.8 mph - N/A   Overcast
8:35 AM 41.0 °F 35.8 °F 28.4 °F 61% 30.36 in 10.0 mi ESE 8.1 mph - N/A   Overcast
8:55 AM 41.0 °F 37.1 °F 30.2 °F 65% 30.36 in 10.0 mi ESE 5.8 mph - N/A   Mostly Cloudy
9:15 AM 42.8 °F 40.1 °F 30.2 °F 61% 30.36 in 10.0 mi ESE 4.6 mph - N/A   Mostly Cloudy
9:35 AM 42.8 °F 38.0 °F 30.2 °F 61% 30.36 in 10.0 mi SE 8.1 mph - N/A   Scattered Clouds
9:55 AM 44.6 °F 39.2 °F 32.0 °F 61% 30.36 in 10.0 mi SSE 10.4 mph - N/A   Scattered Clouds
10:15 AM 44.6 °F 39.2 °F 32.0 °F 61% 30.36 in 10.0 mi SSE 10.4 mph - N/A   Clear
10:35 AM 44.6 °F 40.7 °F 32.0 °F 61% 30.34 in 10.0 mi SE 6.9 mph - N/A   Clear
10:55 AM 46.4 °F 41.9 °F 33.8 °F 62% 30.33 in 10.0 mi SE 9.2 mph - N/A   Clear
11:15 AM 48.2 °F - 33.8 °F 58% 30.33 in 10.0 mi ESE 4.6 mph - N/A   Clear
11:35 AM 50.0 °F - 35.6 °F 58% 30.33 in 10.0 mi SE 3.5 mph - N/A   Clear
11:55 AM 50.0 °F - 35.6 °F 58% 30.32 in 10.0 mi Calm Calm - N/A   Clear
12:15 PM 50.0 °F - 35.6 °F 58% 30.30 in 10.0 mi East 3.5 mph - N/A   Clear
12:35 PM 51.8 °F - 37.4 °F 58% 30.28 in 10.0 mi SE 4.6 mph - N/A   Clear
12:55 PM 51.8 °F - 37.4 °F 58% 30.27 in 10.0 mi Calm Calm - N/A   Clear
1:15 PM 51.8 °F - 39.2 °F 62% 30.27 in 10.0 mi Calm Calm - N/A   Clear
1:35 PM 51.8 °F - 39.2 °F 62% 30.26 in 10.0 mi Calm Calm - N/A   Clear
2:15 PM 55.4 °F - 42.8 °F 63% 30.24 in 10.0 mi SSW 4.6 mph - N/A   Clear
2:35 PM 55.4 °F - 42.8 °F 63% 30.23 in 10.0 mi South 5.8 mph - N/A   Clear
2:55 PM 55.4 °F - 42.8 °F 63% 30.21 in 10.0 mi SW 6.9 mph - N/A   Clear
3:15 PM 55.4 °F - 42.8 °F 63% 30.22 in 10.0 mi SW 4.6 mph - N/A   Clear
3:35 PM 55.4 °F - 44.6 °F 67% 30.21 in 10.0 mi SSW 6.9 mph - N/A   Clear
3:55 PM 57.2 °F - 44.6 °F 63% 30.19 in 10.0 mi SSW 5.8 mph - N/A   Clear
4:15 PM 57.2 °F - 46.4 °F 67% 30.20 in 10.0 mi Calm Calm - N/A   Clear
4:35 PM 57.2 °F - 46.4 °F 67% 30.20 in 10.0 mi Calm Calm - N/A   Clear
4:55 PM 57.2 °F - 46.4 °F 67% 30.18 in 10.0 mi South 3.5 mph - N/A   Clear
5:15 PM 57.2 °F - 46.4 °F 67% 30.17 in 10.0 mi SSE 3.5 mph - N/A   Clear
5:35 PM 57.2 °F - 46.4 °F 67% 30.16 in 10.0 mi SSE 3.5 mph - N/A   Clear
5:55 PM 55.4 °F - 46.4 °F 72% 30.16 in 10.0 mi Calm Calm - N/A   Clear
6:15 PM 51.8 °F - 46.4 °F 82% 30.16 in 10.0 mi Calm Calm - N/A   Clear
6:35 PM 53.6 °F - 46.4 °F 77% 30.16 in 10.0 mi Calm Calm - N/A   Clear
6:55 PM 51.8 °F - 46.4 °F 82% 30.17 in 10.0 mi Calm Calm - N/A   Clear
7:15 PM 48.2 °F - 44.6 °F 87% 30.17 in 10.0 mi Calm Calm - N/A   Clear
7:35 PM 48.2 °F - 44.6 °F 87% 30.16 in 10.0 mi Calm Calm - N/A   Clear
7:55 PM 50.0 °F - 46.4 °F 87% 30.17 in 10.0 mi Calm Calm - N/A   Clear
8:15 PM 48.2 °F - 44.6 °F 87% 30.18 in 10.0 mi Calm Calm - N/A   Clear
8:35 PM 46.4 °F - 44.6 °F 93% 30.17 in 10.0 mi Calm Calm - N/A   Mostly Cloudy
8:55 PM 48.2 °F - 46.4 °F 93% 30.16 in 10.0 mi Calm Calm - N/A   Overcast
9:15 PM 53.6 °F - 50.0 °F 88% 30.16 in 10.0 mi WSW 4.6 mph - N/A   Overcast
9:35 PM 55.4 °F - 50.0 °F 82% 30.16 in 10.0 mi SW 5.8 mph - N/A   Scattered Clouds
9:55 PM 53.6 °F - 50.0 °F 88% 30.18 in 10.0 mi WSW 4.6 mph - N/A   Clear
10:15 PM 53.6 °F - 50.0 °F 88% 30.18 in 10.0 mi WSW 4.6 mph - N/A   Clear
10:35 PM 53.6 °F - 50.0 °F 88% 30.17 in 10.0 mi SW 5.8 mph - N/A   Clear
10:55 PM 53.6 °F - 50.0 °F 88% 30.18 in 10.0 mi WSW 4.6 mph - N/A   Clear
11:15 PM 53.6 °F - 50.0 °F 88% 30.19 in 10.0 mi WSW 5.8 mph - N/A   Clear
11:35 PM 53.6 °F - 50.0 °F 88% 30.18 in 10.0 mi SW 6.9 mph - N/A   Clear
11:55 PM 53.6 °F - 50.0 °F 88% 30.17 in 10.0 mi WSW 5.8 mph - N/A   Clear